Tracking 29892 objects as of 21-Nov-2024
HD Live streaming from Space Station
objects crossing your sky now

ONEWEB-0166

Track ONEWEB-0166 now!
10-day predictions
ONEWEB-0166 is classified as:


NORAD ID: 48065
Int'l Code: 2021-025Z
Perigee: 1,215.6 km
Apogee: 1,218.2 km
Inclination: 87.9 °
Period: 109.6 minutes
Semi major axis: 7587 km
RCS: Unknown
Launch date: March 25, 2021
Source: United States (US)
Launch site: VOSTOCHNY COSMODROME (VOSTO)
Your satellite tracking list
Your tracking list is empty




NASA's NSSDC Master Catalog

Two Line Element Set (TLE):
1 48065U 21025Z   24325.75807227  .00000308  00000-0  80968-3 0  9992
2 48065  87.8919  74.2649 0001714 109.2609 250.8705 13.13472048178375
Source of the keplerian elements: AFSPC